"2009-12-14 00:00:00",1500766,8.27,336.9,6.448,1.294,7.079,101.9361,4.24,5.595,57.56,0,109.8,13.47,5.01,298.9
"2009-12-14 00:00:30",1500767,8.7,339.2,4.614,0.96,8.77,101.9335,4.233,5.639,57.74,0,109.8,13.47,5.00,301.2
"2009-12-14 00:01:00",1500768,9.16,337.9,4.222,0.577,9.51,101.9222,4.205,5.658,57.96,0,109.8,13.47,4.97,299.9
"2009-12-14 00:01:30",1500769,9.17,337.4,4.293,0.851,8.45,101.8996,4.147,5.553,58.21,0,109.8,13.47,4.91,299.4
"2009-12-14 00:02:00",1500770,8.65,337.7,6.098,1.196,7.785,101.8996,4.147,5.554,58.62,0,109.8,13.47,4.91,299.7
"2009-12-14 00:02:30",1500771,7.415,331.8,6.134,1.35,6.266,101.89,4.122,5.495,58.72,0,109.8,13.47,4.89,293.8
"2009-12-14 00:03:00",1500772,7.953,337.4,5.707,1.011,8.09,101.8725,4.078,5.457,58.38,0,109.8,13.47,4.84,299.4
"2009-12-14 00:03:30",1500773,7.625,337.2,6.082,1.194,7.638,101.8657,4.06,5.389,58.04,0,109.8,13.47,4.83,299.2
"2009-12-14 00:04:00",1500774,8.02,337.9,6.259,1.271,7.845,101.86,4.046,5.395,57.85,0,109.8,13.47,4.81,299.9
"2009-12-14 00:04:30",1500775,8.06,337.7,6.244,1.133,8.48,101.8422,4,5.401,57.88,0,109.8,13.47,4.77,299.7
"2009-12-14 00:05:00",1500776,8.07,338.3,5.423,1.136,8.2,101.8317,3.974,5.369,57.87,0,109.8,13.47,4.74,300.3
"2009-12-14 00:05:30",1500777,8.47,339.7,4.933,1.075,8.42,101.8317,3.974,5.34,58.05,0,109.8,13.47,4.74,301.7
"2009-12-14 00:06:00",1500778,8.36,337.7,5.847,1.17,7.714,101.8315,3.973,5.341,58.51,0,109.8,13.47,4.74,299.7
"2009-12-14 00:06:30",1500779,8.72,336.5,5.82,1.049,8.05,101.8221,3.949,5.297,58.81,0,109.8,13.47,4.71,298.5
"2009-12-14 00:07:00",1500780,8.25,334.3,6.662,1.243,7.686,101.8007,3.894,5.214,58.69,0,109.8,13.47,4.66,296.3
"2009-12-14 00:07:30",1500781,8.22,333.9,6.548,1.186,8.08,101.7978,3.887,5.297,58.66,0,109.8,13.47,4.65,295.9
"2009-12-14 00:08:00",1500782,8.02,334.1,7.052,1.114,7.901,101.7981,3.888,5.278,58.48,0,109.8,13.48,4.65,296.1
"2009-12-14 00:08:30",1500783,8.26,335.2,6.117,1.268,8.53,101.7981,3.888,5.259,58.24,0,109.9,13.48,4.65,297.2
"2009-12-14 00:09:00",1500784,8.05,335.1,6.256,1.084,8.34,101.7956,3.881,5.224,58.08,0,109.8,13.48,4.65,297.1
"2009-12-14 00:09:30",1500785,7.76,332,5.75,1.15,7.985,101.7862,3.857,5.19,57.97,0,109.8,13.48,4.62,294.0
"2009-12-14 00:10:00",1500786,7.548,330.7,6.573,1.196,7.506,101.7724,3.822,5.074,57.85,0,109.8,13.48,4.59,292.7
"2009-12-14 00:10:30",1500787,7.864,334,6.111,1.153,8.53,101.7673,3.809,5.176,57.82,0,109.8,13.48,4.57,296.0
"2009-12-14 00:11:00",1500788,7.6,331,6.603,1.192,7.869,101.7662,3.806,5.205,57.75,0,109.8,13.48,4.57,293.0
"2009-12-14 00:11:30",1500789,7.503,334.9,6.034,1.207,8.12,101.7671,3.808,5.173,57.62,0,109.8,13.48,4.57,296.9
"2009-12-14 00:12:00",1500790,7.397,336.9,5.61,1.188,8.16,101.7668,3.808,5.171,57.58,0,109.8,13.48,4.57,298.9
"2009-12-14 00:12:30",1500791,6.967,334.3,5.286,1.106,7.001,101.7688,3.813,4.951,57.34,0,109.9,13.48,4.58,296.3
"2009-12-14 00:13:00",1500792,7.138,337.1,6.461,1.24,7.457,101.7725,3.822,5.153,57.54,0,109.8,13.48,4.59,299.1
"2009-12-14 00:13:30",1500793,7.266,338.2,5.844,1.226,8.6,101.7722,3.822,5.167,57.6,0,109.8,13.48,4.59,300.2
"2009-12-14 00:14:00",1500794,6.699,331.7,6.2,1.192,7.091,101.7714,3.82,5.044,57.28,0,109.8,13.48,4.58,293.7
"2009-12-14 00:14:30",1500795,7.072,336.4,4.073,1.017,9.15,101.7737,3.825,5.173,57.26,0,109.8,13.48,4.59,298.4
"2009-12-14 00:15:00",1500796,5.517,331.6,6.721,1.277,7.394,101.7796,3.84,5.153,56.97,0,109.8,13.48,4.61,293.6
"2009-12-14 00:15:30",1500797,5.723,330.4,5.867,1.337,6.817,101.7921,3.872,4.997,56.64,0,109.8,13.48,4.64,292.4
"2009-12-14 00:16:00",1500798,5.445,329.4,5.314,1.058,6.851,101.8014,3.896,5.122,56.89,0,109.8,13.49,4.66,291.4
"2009-12-14 00:16:30",1500799,6.336,334.8,5.987,1.158,9,101.8088,3.915,5.153,56.83,0,109.8,13.49,4.68,296.8
"2009-12-14 00:17:00",1500800,6.047,330.9,7.133,1.181,7.938,101.8073,3.911,5.123,56.83,0,109.8,13.49,4.68,292.9
"2009-12-14 00:17:30",1500801,6.186,334.2,6.445,1.025,8.83,101.8105,3.919,5.186,56.91,0,109.8,13.49,4.69,296.2
"2009-12-14 00:18:00",1500802,5.037,330.5,6.216,1.207,6.817,101.8091,3.916,5.071,56.67,0,109.8,13.49,4.68,292.5
"2009-12-14 00:18:30",1500803,4.698,326.5,7.454,1.201,6.548,101.8099,3.918,5.097,56.56,0,109.8,13.49,4.68,288.5
"2009-12-14 00:19:00",1500804,4.255,321.7,6.526,0.895,6.241,101.8085,3.914,5.132,56.6,0,109.8,13.49,4.68,283.7
"2009-12-14 00:19:30",1500805,5.284,332.4,5.812,1.042,8.66,101.8122,3.924,5.133,56.69,0,109.8,13.49,4.69,294.4
"2009-12-14 00:20:00",1500806,4.393,311.5,8.04,1.318,7.228,101.8159,3.933,5.059,56.44,0,109.8,13.49,4.70,273.5
"2009-12-14 00:20:30",1500807,5.075,323,6.251,1.164,8.26,101.8289,3.966,5.209,56.5,0,109.8,13.49,4.73,285.0
"2009-12-14 00:21:00",1500808,4.19,322.2,5.706,1.318,7.256,101.8413,3.998,5.191,56.45,0,109.8,13.49,4.76,284.2
"2009-12-14 00:21:30",1500809,3.633,324.4,3.791,1.188,6.837,101.8473,4.013,5.21,56.47,0,109.8,13.49,4.78,286.4
"2009-12-14 00:22:00",1500810,3.008,324.9,5.706,0.919,5.788,101.8447,4.007,5.131,56.43,0,109.8,13.49,4.77,286.9
"2009-12-14 00:22:30",1500811,4.384,329.9,6.902,1.075,8.3,101.8456,4.009,5.135,56.43,0,109.8,13.49,4.78,291.9
"2009-12-14 00:23:00",1500812,2.929,316.6,3.59,0.777,5.399,101.8453,4.008,5.1,56.41,0,109.8,13.49,4.77,278.6
"2009-12-14 00:23:30",1500813,4.124,321,7,1.151,8.52,101.8479,4.015,5.216,56.48,0,109.8,13.49,4.78,283.0
"2009-12-14 00:24:00",1500814,4.331,311.8,5.898,1.034,8.32,101.849,4.018,5.221,56.27,0,109.8,13.49,4.78,273.8
"2009-12-14 00:24:30",1500815,1.742,313.7,2.969,0.106,4.694,101.8464,4.011,5.161,56.04,0,109.8,13.5,4.78,275.7
"2009-12-14 00:25:00",1500816,2.717,313.7,3.481,1.236,6.777,101.8473,4.013,5.173,56.07,0,109.8,13.5,4.78,275.7
"2009-12-14 00:25:30",1500817,2.351,304.5,2.969,0.826,5.474,101.8487,4.017,5.193,56.04,0,109.7,13.5,4.78,266.5
"2009-12-14 00:26:00",1500818,1.974,287,5.616,0.226,5.737,101.8552,4.034,5.192,55.91,0,109.8,13.54,4.80,249.0
"2009-12-14 00:26:30",1500819,3.907,282,6.209,0.947,6.834,101.8657,4.06,5.112,55.64,0,109.8,13.5,4.83,244.0
"2009-12-14 00:27:00",1500820,4.139,279.5,9.68,1.224,6.689,101.8736,4.081,5.347,55.55,0,109.8,13.5,4.85,241.5
"2009-12-14 00:27:30",1500821,4.742,288.1,5.473,1.142,8.7,101.8847,4.109,5.316,55.48,0,109.8,13.5,4.88,250.1
"2009-12-14 00:28:00",1500822,4.335,280,10.39,1.304,7.55,101.8838,4.107,5.306,55.46,0,109.8,13.5,4.87,242.0
"2009-12-14 00:28:30",1500823,3.218,271.1,6.782,1.063,6.057,101.8844,4.108,5.256,55.34,0,109.8,13.5,4.87,233.1
"2009-12-14 00:29:00",1500824,4.503,265,9.3,1.187,6.922,101.8853,4.11,5.104,54.97,0,109.8,13.5,4.88,227.0
"2009-12-14 00:29:30",1500825,3.331,253.6,4.302,0.228,5.256,101.8935,4.131,5.253,55.08,0,109.8,13.5,4.90,215.6
"2009-12-14 00:30:00",1500826,4.492,259.2,4.919,1.066,6.913,101.9042,4.159,5.179,54.99,0,109.8,13.5,4.93,221.2
"2009-12-14 00:30:30",1500827,5.385,260.5,5.975,1.234,8.45,101.9144,4.185,5.374,54.91,0,109.8,13.5,4.95,222.5
"2009-12-14 00:31:00",1500828,5.536,265.4,5.366,1.085,8.32,101.9229,4.206,5.387,54.73,0,109.8,13.5,4.97,227.4
"2009-12-14 00:31:30",1500829,4.3,264.7,8.32,0.991,6.652,101.9221,4.204,5.329,54.59,0,109.8,13.5,4.97,226.7
"2009-12-14 00:32:00",1500830,4.603,263.8,9.35,1.184,7.325,101.9247,4.211,5.385,54.63,0,109.8,13.5,4.98,225.8
"2009-12-14 00:32:30",1500831,5.064,262.2,4.139,1.064,6.682,101.9244,4.21,5.212,54.45,0,109.8,13.5,4.98,224.2
"2009-12-14 00:33:00",1500832,5.498,268.6,6.84,1.312,6.921,101.9436,4.259,5.386,54.64,0,109.8,13.5,5.03,230.6
"2009-12-14 00:33:30",1500833,5.371,267.5,8.31,1.422,7.367,101.956,4.291,5.372,54.69,0,109.8,13.5,5.06,229.5
"2009-12-14 00:34:00",1500834,5.596,267.5,9.05,1.292,8.62,101.9592,4.299,5.48,54.49,0,109.8,13.5,5.07,229.5
"2009-12-14 00:34:30",1500835,5.926,264.9,6.931,1.095,8.93,101.9597,4.3,5.45,54.36,0,109.8,13.5,5.07,226.9
"2009-12-14 00:35:00",1500836,5.239,266.5,7.154,1.073,6.79,101.9592,4.299,5.365,53.92,0,109.8,13.5,5.07,228.5
"2009-12-14 00:35:30",1500837,5.295,265.5,12.27,1.236,8.85,101.9648,4.313,5.481,53.79,0,109.8,13.5,5.08,227.5
"2009-12-14 00:36:00",1500838,3.722,251.4,3.841,0.5,5.549,101.9688,4.323,5.394,53.64,0,109.8,13.5,5.09,213.4
"2009-12-14 00:36:30",1500839,5.018,262.9,7.468,1.302,7.874,101.9812,4.355,5.457,53.77,0,109.8,13.5,5.12,224.9
"2009-12-14 00:37:00",1500840,6.525,273.3,7.091,1.41,8.54,101.9917,4.382,5.565,53.97,0,109.8,13.5,5.15,235.3
"2009-12-14 00:37:30",1500841,6.314,281.4,5.547,1.312,8.83,101.9963,4.394,5.576,53.87,0,109.8,13.5,5.16,243.4
"2009-12-14 00:38:00",1500842,5.24,276.8,8.07,1.244,6.997,101.9983,4.399,5.482,53.89,0,109.8,13.5,5.17,238.8
"2009-12-14 00:38:30",1500843,5.986,281.4,6.751,1.045,8.55,101.9983,4.399,5.529,54.07,0,109.8,13.5,5.17,243.4
"2009-12-14 00:39:00",1500844,4.029,274.3,2.554,0.617,4.985,102.0006,4.405,5.438,53.94,0,109.8,13.5,5.17,236.3
"2009-12-14 00:39:30",1500845,3.572,274.6,1.791,0.162,4.96,102.0009,4.405,5.37,53.81,0,109.8,13.53,5.17,236.6
"2009-12-14 00:40:00",1500846,5.624,280.5,6.251,1.27,7.766,102.0003,4.404,5.632,54.16,0,109.8,13.5,5.17,242.5
"2009-12-14 00:40:30",1500847,5.767,282.7,7.164,1.201,8.48,102.0012,4.406,5.633,54.25,0,109.8,13.5,5.17,244.7
"2009-12-14 00:41:00",1500848,5.793,282.4,7.574,1.218,8.27,102.0023,4.409,5.65,54.28,0,109.8,13.5,5.18,244.4
"2009-12-14 00:41:30",1500849,6.335,276.8,5.746,1.069,8.95,102.0051,4.416,5.612,54.13,0,109.8,13.51,5.18,238.8
"2009-12-14 00:42:00",1500850,4.52,267.6,4.084,0.826,5.021,102.0057,4.418,5.492,53.91,0,109.8,13.51,5.19,229.6
"2009-12-14 00:42:30",1500851,5.099,264.6,5.507,1.144,6.192,102.0102,4.429,5.525,54.03,0,109.8,13.51,5.20,226.6
"2009-12-14 00:43:00",1500852,6.903,269,7.317,1.289,8.54,102.0091,4.426,5.583,53.96,0,109.8,13.51,5.19,231.0
"2009-12-14 00:43:30",1500853,6.838,270.1,7.93,1.294,8.76,102.0142,4.439,5.612,53.52,0,109.8,13.51,5.21,232.1
"2009-12-14 00:44:00",1500854,7.031,273.2,5.962,1.066,9.44,102.0162,4.444,5.719,53.15,0,109.8,13.51,5.21,235.2
"2009-12-14 00:44:30",1500855,6.899,276.4,6.576,1.156,8.89,102.0159,4.444,5.631,52.91,0,109.8,13.51,5.21,238.4
"2009-12-14 00:45:00",1500856,5.988,265.7,6.702,1.194,7.497,102.0187,4.451,5.532,53.03,0,109.8,13.51,5.22,227.7
"2009-12-14 00:45:30",1500857,4.753,259.4,2.324,0.144,5.39,102.0182,4.45,5.415,52.85,0,109.8,13.54,5.22,221.4
"2009-12-14 00:46:00",1500858,6.048,267.8,6.846,1.31,7.927,102.0187,4.451,5.654,52.96,0,109.8,13.51,5.22,229.8
"2009-12-14 00:46:30",1500859,6.513,269.4,5.55,1.209,8.82,102.0204,4.455,5.641,52.69,0,109.8,13.51,5.22,231.4
"2009-12-14 00:47:00",1500860,6.561,269.3,6.137,1.189,9.03,102.0227,4.461,5.719,52.9,0,109.8,13.51,5.23,231.3
"2009-12-14 00:47:30",1500861,6.865,271,6.209,1.098,8.86,102.023,4.462,5.694,53.53,0,109.8,13.51,5.23,233.0
"2009-12-14 00:48:00",1500862,5.341,261.5,7.301,1.118,6.633,102.0278,4.474,5.609,53.77,0,109.8,13.51,5.24,223.5
"2009-12-14 00:48:30",1500863,4.998,262.9,5.92,1.009,6.396,102.0286,4.476,5.598,53.87,0,109.8,13.51,5.24,224.9
"2009-12-14 00:49:00",1500864,6.55,270.1,5.994,0.984,8.79,102.0303,4.481,5.623,53.95,0,109.8,13.51,5.25,232.1
"2009-12-14 00:49:30",1500865,5.935,263.7,6.814,1.434,7.528,102.0309,4.482,5.578,53.93,0,109.8,13.51,5.25,225.7
"2009-12-14 00:50:00",1500866,6.254,264.2,6.575,1.112,9,102.0309,4.482,5.696,54.05,0,109.8,13.51,5.25,226.2
"2009-12-14 00:50:30",1500867,6.35,264.6,5.465,1.231,8.79,102.0303,4.481,5.691,54.09,0,109.8,13.51,5.25,226.6
"2009-12-14 00:51:00",1500868,6.732,268.2,8.66,1.49,7.912,102.0281,4.475,5.625,54.19,0,109.8,13.51,5.24,230.2
"2009-12-14 00:51:30",1500869,5.597,259,4.176,0.962,6.059,102.0261,4.47,5.498,54.08,0,109.8,13.51,5.24,221.0
"2009-12-14 00:52:00",1500870,6.95,268,6.094,1.091,8.57,102.0227,4.461,5.72,54.22,0,109.8,13.51,5.23,230.0
"2009-12-14 00:52:30",1500871,5.873,258.7,5.858,1.051,6.808,102.0204,4.455,5.668,54.38,0,109.8,13.51,5.22,220.7
"2009-12-14 00:53:00",1500872,6.923,261.9,6.112,1.144,9.03,102.0187,4.451,5.736,54.46,0,109.8,13.51,5.22,223.9
"2009-12-14 00:53:30",1500873,6.85,265.9,7.545,1.192,9.28,102.0148,4.441,5.732,54.26,0,109.8,13.51,5.21,227.9
"2009-12-14 00:54:00",1500874,5.835,260.2,7.208,1.291,7.426,102.0105,4.43,5.682,54.34,0,109.8,13.51,5.20,222.2
"2009-12-14 00:54:30",1500875,6.244,264,8.39,1.321,7.171,102.0037,4.413,5.561,54.36,0,109.8,13.51,5.18,226.0
"2009-12-14 00:55:00",1500876,5.94,264.7,6.932,1.232,7.943,102.0023,4.409,5.705,54.66,0,109.8,13.51,5.18,226.7
"2009-12-14 00:55:30",1500877,5.875,266.8,5.347,0.982,7.23,102.002,4.408,5.495,54.48,0,109.8,13.51,5.18,228.8
"2009-12-14 00:56:00",1500878,7.616,274.8,5.256,1.125,9.48,102.002,4.408,5.732,54.35,0,109.8,13.51,5.18,236.8
"2009-12-14 00:56:30",1500879,6.882,269.2,6.389,1.186,8.76,102.002,4.408,5.642,54.22,0,109.8,13.51,5.18,231.2
"2009-12-14 00:57:00",1500880,6.708,266.6,6.47,1.17,9.17,102.002,4.408,5.693,54.12,0,109.8,13.51,5.18,228.6
"2009-12-14 00:57:30",1500881,5.45,259.9,3.504,0.787,5.943,102.0026,4.41,5.571,53.94,0,109.8,13.51,5.18,221.9
"2009-12-14 00:58:00",1500882,6.657,269.4,5.615,1.269,7.672,102.0035,4.412,5.624,53.89,0,109.8,13.51,5.18,231.4
"2009-12-14 00:58:30",1500883,6.314,270.1,5.052,1.249,6.781,102.0032,4.411,5.598,54.16,0,109.8,13.51,5.18,232.1
"2009-12-14 00:59:00",1500884,7.469,275.3,7.539,1.207,8.2,102.0026,4.41,5.665,54.5,0,109.8,13.51,5.18,237.3
"2009-12-14 00:59:30",1500885,7.471,271.9,6.061,1.229,8.87,102.0001,4.403,5.683,54.56,0,109.8,13.51,5.17,233.9
"2009-12-14 01:00:00",1500886,7.036,270,5.363,0.943,8.79,101.9961,4.393,5.628,54.75,0,109.8,13.51,5.16,232.0
"2009-12-14 01:00:30",1500887,6.489,266.4,6.625,1.271,7.293,101.9913,4.381,5.557,54.69,0,109.8,13.51,5.15,228.4
"2009-12-14 01:01:00",1500888,6.314,264.9,7.351,1.245,6.997,101.9854,4.366,5.594,55.12,0,109.8,13.51,5.13,226.9
"2009-12-14 01:01:30",1500889,6.545,266.5,5.642,1.185,8.12,101.9823,4.358,5.634,55.52,0,109.8,13.51,5.13,228.5
"2009-12-14 01:02:00",1500890,7.529,270.3,5.596,1.076,8.9,101.9775,4.346,5.649,55.8,0,109.8,13.51,5.11,232.3
"2009-12-14 01:02:30",1500891,7.6,268.5,6.118,1.244,8.6,101.9744,4.338,5.663,55.92,0,109.8,13.51,5.11,230.5
"2009-12-14 01:03:00",1500892,7.042,267.4,6.777,1.231,8.1,101.9707,4.328,5.664,56.06,0,109.8,13.51,5.10,229.4
"2009-12-14 01:03:30",1500893,7.171,266.8,6.594,1.206,7.704,101.9742,4.337,5.537,56.13,0,109.8,13.51,5.10,228.8
"2009-12-14 01:04:00",1500894,6.885,261.1,4.015,0.794,6.224,101.9744,4.338,5.5,56.06,0,109.8,13.51,5.11,223.1
"2009-12-14 01:04:30",1500895,8.29,269.7,5.909,1.237,8.87,101.9742,4.337,5.623,55.34,0,109.8,13.51,5.10,231.7
"2009-12-14 01:05:00",1500896,9.19,277.7,4.89,0.852,9.73,101.9768,4.344,5.666,54.71,0,109.8,13.51,5.11,239.7
"2009-12-14 01:05:30",1500897,8.54,278.3,5.763,1.131,8.92,101.9725,4.333,5.619,53.81,0,109.8,13.52,5.10,240.3
"2009-12-14 01:06:00",1500898,8.02,274.6,7.666,1.156,8.66,101.9723,4.332,5.602,52.59,0,109.8,13.51,5.10,236.6
"2009-12-14 01:06:30",1500899,8.52,269.2,5.948,1.031,8.43,101.9715,4.33,5.43,53.7,0,109.8,13.51,5.10,231.2
"2009-12-14 01:07:00",1500900,6.756,264.9,6.065,0.977,6.106,101.974,4.337,5.478,53.88,0,109.8,13.52,5.10,226.9
"2009-12-14 01:07:30",1500901,8.41,272.7,5.096,1.042,8.85,101.9803,4.353,5.531,53.35,0,109.8,13.52,5.12,234.7
"2009-12-14 01:08:00",1500902,7.399,263.7,6.505,1.233,8.58,101.9849,4.365,5.639,53.63,0,109.8,13.51,5.13,225.7
"2009-12-14 01:08:30",1500903,8.66,268.1,6.357,1.058,9.28,101.9848,4.364,5.555,53.69,0,109.8,13.51,5.13,230.1
"2009-12-14 01:09:00",1500904,8.6,261.8,5.894,1.296,8.26,101.9877,4.372,5.61,54.47,0,109.9,13.51,5.14,223.8
"2009-12-14 01:09:30",1500905,8.98,263.1,6.071,1.027,8.16,101.9886,4.374,5.463,54.7,0,109.8,13.51,5.14,225.1
"2009-12-14 01:10:00",1500906,8.66,262,7.215,1.292,7.655,101.9897,4.377,5.552,54.58,0,109.8,13.51,5.14,224.0
"2009-12-14 01:10:30",1500907,9.21,266.4,5.8,1.22,8.8,101.9889,4.375,5.517,53.7,0,109.8,13.51,5.14,228.4
"2009-12-14 01:11:00",1500908,9.72,266.9,5.794,1.09,9.2,101.9909,4.38,5.636,53.82,0,109.8,13.51,5.15,228.9
"2009-12-14 01:11:30",1500909,9.96,266.4,6.141,1.032,9.16,101.992,4.383,5.615,53.54,0,109.8,13.51,5.15,228.4
"2009-12-14 01:12:00",1500910,9.48,267.9,6.723,1.017,8.97,101.9917,4.382,5.554,54.27,0,109.8,13.51,5.15,229.9
"2009-12-14 01:12:30",1500911,8.58,264.7,5.59,1.313,8.47,101.99,4.378,5.624,53.87,0,109.8,13.51,5.15,226.7
"2009-12-14 01:13:00",1500912,10.01,263.6,6.4,1.201,8.92,101.9915,4.381,5.515,52.41,0,109.8,13.51,5.15,225.6
"2009-12-14 01:13:30",1500913,9.58,263,7.341,1.297,8.96,101.9926,4.384,5.59,51.91,0,109.8,13.51,5.15,225.0
"2009-12-14 01:14:00",1500914,10.03,268.9,3.621,0.658,9.7,101.9943,4.389,5.652,53.19,0,109.8,13.51,5.16,230.9
"2009-12-14 01:14:30",1500915,10.16,267.7,5.747,1.215,9.13,101.9926,4.384,5.602,53.19,0,109.8,13.51,5.15,229.7
"2009-12-14 01:15:00",1500916,10.42,265.5,7.13,1.225,9.06,101.9935,4.387,5.531,51.6,0,109.8,13.51,5.15,227.5
"2009-12-14 01:15:30",1500917,10.18,262.5,7.415,1.691,8.23,101.9929,4.385,5.545,51.3,0,109.8,13.51,5.15,224.5
"2009-12-14 01:16:00",1500918,12.04,271.4,6.935,1.081,9.81,101.9938,4.387,5.575,49.54,0,109.8,13.51,5.15,233.4
"2009-12-14 01:16:30",1500919,12.04,269.5,7.83,1.409,9.96,101.9949,4.39,5.665,49.92,0,109.8,13.51,5.16,231.5
"2009-12-14 01:17:00",1500920,13.08,275,4.914,0.779,10.29,101.9943,4.389,5.666,48.8,0,109.8,13.51,5.16,237.0
"2009-12-14 01:17:30",1500921,13.16,275.9,4.919,0.728,10.24,101.9989,4.4,5.675,49.04,0,109.8,13.51,5.17,237.9
"2009-12-14 01:18:00",1500922,14.45,277.8,4.404,0.726,10.05,102.0071,4.421,5.685,48.64,0,109.7,13.51,5.19,239.8
"2009-12-14 01:18:30",1500923,15.13,280.3,3.557,0.737,10.12,102.0249,4.467,5.693,46.27,0,109.8,13.51,5.23,242.3
"2009-12-14 01:19:00",1500924,15.82,281.6,4.704,0.675,10.27,102.0283,4.475,5.7,43.78,0,109.8,13.51,5.24,243.6
"2009-12-14 01:19:30",1500925,15.17,281.1,4.633,0.798,10.2,102.0436,4.514,5.711,44.05,0,109.8,13.51,5.28,243.1
"2009-12-14 01:20:00",1500926,15.89,282.6,4.041,0.914,10.18,102.0611,4.559,5.736,43.64,0,109.8,13.51,5.33,244.6
"2009-12-14 01:20:30",1500927,16.82,281.7,4.35,0.767,10.33,102.0699,4.582,5.763,41.68,0,109.8,13.51,5.35,243.7
"2009-12-14 01:21:00",1500928,16.13,280.7,4.828,0.768,10.3,102.0945,4.644,5.757,41.36,0,109.8,13.51,5.41,242.7
"2009-12-14 01:21:30",1500929,16.42,278.8,4.262,0.659,9.99,102.0998,4.658,5.8,41.62,0,109.8,13.51,5.43,240.8
"2009-12-14 01:22:00",1500930,16.68,279.5,3.82,0.574,10,102.1264,4.726,5.832,42.99,0,109.8,13.51,5.49,241.5
"2009-12-14 01:22:30",1500931,16.59,281.3,4.638,0.763,10.28,102.1329,4.743,5.882,42.18,0,109.8,13.51,5.51,243.3
"2009-12-14 01:23:00",1500932,16.08,280.8,4.588,0.59,10.03,102.1505,4.787,5.898,42.12,0,109.8,13.51,5.56,242.8
"2009-12-14 01:23:30",1500933,15.72,282.3,4.97,0.845,10.29,102.1638,4.821,5.935,41.59,0,109.8,13.51,5.59,244.3
"2009-12-14 01:24:00",1500934,15.64,279.7,4.257,0.658,10.32,102.1643,4.823,5.952,39.52,0,109.8,13.5,5.59,241.7
"2009-12-14 01:24:30",1500935,16.48,281.1,3.992,0.769,10.2,102.1805,4.864,5.997,39.75,0,109.8,13.5,5.63,243.1
"2009-12-14 01:25:00",1500936,16.85,285.3,4.297,0.718,10.27,102.196,4.904,5.995,39.03,0,109.8,13.5,5.67,247.3
"2009-12-14 01:25:30",1500937,17.69,284.1,4.246,1.187,10.16,102.1983,4.909,6.016,39.47,0,109.8,13.5,5.68,246.1
"2009-12-14 01:26:00",1500938,17.3,288.8,3.854,0.555,10.35,102.2118,4.944,6.053,38.63,0,109.7,13.5,5.71,250.8
"2009-12-14 01:26:30",1500939,17.29,283.7,4.243,0.621,10.13,102.228,4.985,6.089,39.75,0,109.8,13.5,5.75,245.7
"2009-12-14 01:27:00",1500940,16.87,285.6,4.093,0.801,10.23,102.2314,4.994,6.131,40.12,0,109.8,13.5,5.76,247.6
"2009-12-14 01:27:30",1500941,15.98,286,3.888,0.747,10.29,102.2311,4.993,6.124,39.54,0,109.8,13.5,5.76,248.0
"2009-12-14 01:28:00",1500942,17.17,287.8,4.366,0.502,10.43,102.2285,4.987,6.135,39.26,0,109.8,13.49,5.76,249.8
"2009-12-14 01:28:30",1500943,16.07,287.9,4.411,0.625,10.33,102.2296,4.99,6.163,38.78,0,109.8,13.5,5.76,249.9
"2009-12-14 01:29:00",1500944,16.29,286.8,4.652,0.722,10.23,102.2273,4.984,6.189,39.01,0,109.8,13.5,5.75,248.8
"2009-12-14 01:29:30",1500945,16.72,288.8,4.391,0.588,10.2,102.2264,4.981,6.195,39.24,0,109.8,13.5,5.75,250.8
"2009-12-14 01:30:00",1500946,16.42,290.7,3.769,0.738,10.21,102.2238,4.975,6.198,39.55,0,109.7,13.5,5.74,252.7
"2009-12-14 01:30:30",1500947,15.47,285.9,4.533,1.13,10.2,102.2256,4.979,6.226,39.45,0,109.8,13.5,5.75,247.9
"2009-12-14 01:31:00",1500948,14.05,283.3,4.115,0.747,10.11,102.2241,4.976,6.206,39.82,0,109.8,13.5,5.74,245.3
"2009-12-14 01:31:30",1500949,14.7,286.2,4.427,0.626,10.08,102.2209,4.967,6.22,40,0,109.8,13.5,5.74,248.2
"2009-12-14 01:32:00",1500950,14.6,286.5,4.234,0.854,9.72,102.2212,4.968,6.206,40.53,0,109.8,13.5,5.74,248.5
"2009-12-14 01:32:30",1500951,14.18,286.8,4.537,0.755,9.67,102.2164,4.956,6.194,40.97,0,109.8,13.5,5.73,248.8
"2009-12-14 01:33:00",1500952,12.96,285.3,4.713,1.024,9.71,102.2011,4.917,6.196,40.85,0,109.8,13.5,5.69,247.3
"2009-12-14 01:33:30",1500953,14.1,283.9,5.094,0.609,9.8,102.1866,4.88,6.189,39.49,0,109.8,13.5,5.65,245.9
"2009-12-14 01:34:00",1500954,13.96,280,4.364,0.613,9.57,102.1801,4.863,6.173,40.19,0,109.8,13.5,5.63,242.0
"2009-12-14 01:34:30",1500955,14.25,276.1,4.995,1.229,9.74,102.1833,4.871,6.179,40.99,0,109.8,13.5,5.64,238.1
"2009-12-14 01:35:00",1500956,12.97,281.8,4.54,0.879,9.74,102.1798,4.862,6.167,40.52,0,109.8,13.5,5.63,243.8
"2009-12-14 01:35:30",1500957,13.73,281.4,4.583,0.745,9.51,102.1679,4.832,6.147,40.42,0,109.8,13.5,5.60,243.4
"2009-12-14 01:36:00",1500958,13.6,284.7,4.83,0.402,9.56,102.1538,4.796,6.119,40.74,0,109.8,13.5,5.56,246.7
"2009-12-14 01:36:30",1500959,13.88,285.8,4.079,0.661,9.48,102.1458,4.776,6.128,40.94,0,109.8,13.5,5.54,247.8
"2009-12-14 01:37:00",1500960,13.31,282,4.634,0.572,9.38,102.1427,4.768,6.116,40.7,0,109.8,13.5,5.54,244.0
"2009-12-14 01:37:30",1500961,13.02,279.3,4.282,0.663,9.57,102.1432,4.769,6.098,40.61,0,109.8,13.5,5.54,241.3
"2009-12-14 01:38:00",1500962,13.39,284,4.401,0.727,9.61,102.1421,4.766,6.087,40.15,0,109.8,13.5,5.53,246.0
"2009-12-14 01:38:30",1500963,13.06,284,4.943,0.56,9.46,102.1401,4.761,6.068,40.47,0,109.8,13.5,5.53,246.0
"2009-12-14 01:39:00",1500964,13.03,285.7,4.62,0.562,9.38,102.1358,4.75,6.065,41.06,0,109.8,13.5,5.52,247.7
"2009-12-14 01:39:30",1500965,12.86,287.8,4.934,0.596,9.4,102.1254,4.723,6.067,40.92,0,109.8,13.5,5.49,249.8
"2009-12-14 01:40:00",1500966,13.78,293.1,5.382,0.708,9.36,102.1174,4.703,6.056,41.29,0,109.8,13.5,5.47,255.1
"2009-12-14 01:40:30",1500967,13.98,293.7,4.401,0.608,9.48,102.1115,4.688,6.058,40.61,0,109.8,13.5,5.46,255.7
"2009-12-14 01:41:00",1500968,14,291.2,4.052,0.692,9.39,102.1058,4.673,6.042,40.79,0,109.8,13.5,5.44,253.2
"2009-12-14 01:41:30",1500969,13.9,289.9,3.876,0.804,9.44,102.105,4.671,6.018,41.2,0,109.8,13.49,5.44,251.9
"2009-12-14 01:42:00",1500970,14.61,291.8,3.86,0.614,9.56,102.1053,4.672,5.998,41.06,0,109.7,13.49,5.44,253.8
"2009-12-14 01:42:30",1500971,15.35,292,4.338,0.73,9.59,102.1038,4.668,6.009,41.03,0,109.8,13.49,5.44,254.0
"2009-12-14 01:43:00",1500972,15.82,293.3,4.406,0.599,9.67,102.1022,4.664,5.987,40.58,0,109.8,13.49,5.43,255.3
"2009-12-14 01:43:30",1500973,16.02,295.6,4.652,0.613,9.98,102.0914,4.637,5.987,40.32,0,109.8,13.49,5.40,257.6
"2009-12-14 01:44:00",1500974,15.89,296.2,3.723,0.493,9.96,102.0826,4.614,5.968,39.8,0,109.8,13.49,5.38,258.2
"2009-12-14 01:44:30",1500975,15.59,296.8,4.196,0.673,10.03,102.0787,4.604,5.973,39.4,0,109.8,13.49,5.37,258.8
"2009-12-14 01:45:00",1500976,15.73,297.2,4.998,0.698,10.11,102.0807,4.609,5.944,37.84,0,109.8,13.49,5.38,259.2
"2009-12-14 01:45:30",1500977,15.64,293.9,4.159,0.77,10.18,102.0908,4.635,5.945,39.12,0,109.8,13.5,5.40,255.9
"2009-12-14 01:46:00",1500978,14.7,293.8,4.337,0.569,9.99,102.1013,4.662,5.944,39.83,0,109.8,13.5,5.43,255.8
"2009-12-14 01:46:30",1500979,15.47,295.6,4.791,0.795,9.96,102.1044,4.67,5.969,40.03,0,109.8,13.5,5.44,257.6
"2009-12-14 01:47:00",1500980,15.38,295.4,5.304,0.766,10.17,102.1044,4.67,5.955,39.3,0,109.8,13.5,5.44,257.4
"2009-12-14 01:47:30",1500981,15.43,293.7,4.889,0.679,10.18,102.1041,4.669,5.947,38.67,0,109.8,13.5,5.44,255.7
"2009-12-14 01:48:00",1500982,15.01,293.4,4.116,0.81,10.06,102.105,4.671,5.948,38.64,0,109.8,13.5,5.44,255.4
"2009-12-14 01:48:30",1500983,15.42,293.7,3.572,0.89,9.9,102.1044,4.67,5.966,39.31,0,109.8,13.5,5.44,255.7